GW0795 Weather Reports


Display with metric or nautical units.
time (UTC)temp
F
wind
direction
speed
MPH
gust
MPH
rain 1hr
in
rain 24hr
in
rain mn
in
humidity
%
barometer
mb
20260503025012 69 22 3.0 8.0 0.00 0.00 0.00 52 1013.1
20260503024523 70 10 2.0 8.0 0.00 0.00 0.00 52 1013.0
20260503024009 70 49 2.0 9.0 0.00 0.00 0.00 52 1012.9
20260503023511 70 338 3.0 9.0 0.00 0.00 0.00 51 1012.9
20260503023026 70 341 4.0 8.0 0.00 0.00 0.00 51 1012.8
20260503022509 70 13 1.0 7.0 0.00 0.00 0.00 51 1012.9
20260503022005 70 321 1.0 7.0 0.00 0.00 0.00 51 1012.9
20260503021509 71 325 2.0 8.0 0.00 0.00 0.00 50 1012.8
20260503021005 71 346 1.0 8.0 0.00 0.00 0.00 50 1012.8
20260503020505 71 38 3.0 7.0 0.00 0.00 0.00 49 1012.9
20260503020016 72 5 3.0 9.0 0.00 0.00 0.00 49 1012.9
20260503015508 72 346 1.0 9.0 0.00 0.00 0.00 49 1012.9
20260503015009 72 39 2.0 9.0 0.00 0.00 0.00 50 1012.9
20260503014536 72 26 4.0 9.0 0.00 0.00 0.00 49 1012.9
20260503014008 72 333 4.0 8.0 0.00 0.00 0.00 49 1012.9
20260503013513 73 38 3.0 8.0 0.00 0.00 0.00 48 1013.0
20260503013026 73 312 1.0 9.0 0.00 0.00 0.00 48 1013.0
20260503012509 73 27 5.0 9.0 0.00 0.00 0.00 47 1013.1
20260503012009 73 5 2.0 6.0 0.00 0.00 0.00 48 1013.1
20260503011528 73 37 3.0 7.0 0.00 0.00 0.00 47 1013.1
20260503011008 73 34 3.0 9.0 0.00 0.00 0.00 47 1013.1
20260503010507 73 329 4.0 9.0 0.00 0.00 0.00 46 1013.1
20260503010014 73 42 3.0 10.0 0.00 0.00 0.00 45 1013.0
20260503005506 73 36 3.0 10.0 0.00 0.00 0.00 46 1013.1
20260503005006 73 21 4.0 12.0 0.00 0.00 0.00 46 1013.2
20260503004517 73 350 4.0 12.0 0.00 0.00 0.00 47 1013.2
20260503004007 73 9 7.0 11.0 0.00 0.00 0.00 45 1013.2
20260503003506 73 16 4.0 9.0 0.00 0.00 0.00 46 1013.2
20260503003021 73 352 2.0 9.0 0.00 0.00 0.00 46 1013.1
20260503002510 73 327 4.0 9.0 0.00 0.00 0.00 47 1013.2
20260503002014 73 352 4.0 9.0 0.00 0.00 0.00 46 1013.2
20260503001508 73 320 4.0 10.0 0.00 0.00 0.00 46 1013.2
20260503001008 73 9 3.0 10.0 0.00 0.00 0.00 47 1013.2
20260503000509 73 22 5.0 9.0 0.00 0.00 0.00 46 1013.3
20260503000015 73 53 4.0 8.0 0.00 0.00 0.00 47 1013.4
20260502235504 73 336 1.0 12.0 0.00 0.00 0.00 48 1013.4
20260502235004 72 23 5.0 12.0 0.00 0.00 0.00 48 1013.5
20260502234516 73 294 5.0 10.0 0.00 0.00 0.00 47 1013.5
20260502234009 73 24 2.0 10.0 0.00 0.00 0.00 47 1013.6
20260502233502 72 44 4.0 10.0 0.00 0.00 0.00 46 1013.7
20260502233002 72 5 2.0 9.0 0.00 0.00 0.00 47 1013.8
20260502232503 72 336 4.0 14.0 0.00 0.00 0.00 47 1013.8
20260502232001 72 308 5.0 14.0 0.00 0.00 0.00 45 1013.9
20260502231506 73 30 4.0 12.0 0.00 0.00 0.00 45 1014.0
20260502231006 73 345 4.0 12.0 0.00 0.00 0.00 45 1014.0
20260502230509 73 34 6.0 12.0 0.00 0.00 0.00 44 1014.1
20260502230011 73 17 6.0 13.0 0.00 0.00 0.00 45 1014.1
20260502225505 73 28 3.0 13.0 0.00 0.00 0.00 43 1014.2
20260502225007 73 352 3.0 12.0 0.00 0.00 0.00 44 1014.3
20260502224517 73 13 3.0 12.0 0.00 0.00 0.00 47 1014.4
20260502224004 72 335 3.0 9.0 0.00 0.00 0.00 46 1014.4
20260502223508 72 29 4.0 8.0 0.00 0.00 0.00 49 1014.5
20260502223020 72 57 4.0 10.0 0.00 0.00 0.00 50 1014.5
20260502222508 72 13 5.0 11.0 0.00 0.00 0.00 50 1014.6
20260502222002 72 18 6.0 11.0 0.00 0.00 0.00 51 1014.6
20260502221506 73 15 3.0 8.0 0.00 0.00 0.00 51 1014.6
20260502221002 73 296 2.0 8.0 0.00 0.00 0.00 51 1014.7
20260502220506 72 352 3.0 8.0 0.00 0.00 0.00 54 1014.7
20260502220007 72 73 3.0 7.0 0.00 0.00 0.00 54 1014.7
20260502215505 72 339 2.0 8.0 0.00 0.00 0.00 53 1014.7
20260502215006 71 34 2.0 10.0 0.00 0.00 0.00 56 1014.7
20260502214513 71 65 4.0 10.0 0.00 0.00 0.00 54 1014.8
20260502214008 70 14 2.0 10.0 0.00 0.00 0.00 57 1014.8
20260502213511 70 294 4.0 11.0 0.00 0.00 0.00 56 1015.0
20260502213019 71 33 5.0 11.0 0.00 0.00 0.00 55 1015.1
20260502212508 70 41 3.0 9.0 0.00 0.00 0.00 54 1015.1
20260502212007 71 24 1.0 10.0 0.00 0.00 0.00 58 1015.2
20260502211532 70 78 2.0 11.0 0.00 0.00 0.00 57 1015.3
20260502211012 70 17 5.0 11.0 0.00 0.00 0.00 57 1015.3
20260502210504 70 55 3.0 6.0 0.00 0.00 0.00 56 1015.3
20260502210008 71 19 4.0 11.0 0.00 0.00 0.00 56 1015.3
20260502205506 71 42 5.0 11.0 0.00 0.00 0.00 57 1015.3
20260502205004 70 269 4.0 9.0 0.00 0.00 0.00 58 1015.4
20260502204510 69 26 4.0 11.0 0.00 0.00 0.00 57 1015.5
20260502204005 69 360 5.0 11.0 0.00 0.00 0.00 58 1015.5
20260502203506 69 360 5.0 11.0 0.00 0.00 0.00 57 1015.4
20260502203018 69 36 5.0 11.0 0.00 0.00 0.00 58 1015.6
20260502202507 69 31 3.0 9.0 0.00 0.00 0.00 57 1015.6
20260502202007 69 352 3.0 9.0 0.00 0.00 0.00 57 1015.7
20260502201519 69 86 3.0 9.0 0.00 0.00 0.00 58 1015.7
20260502201010 69 341 4.0 9.0 0.00 0.00 0.00 59 1015.8
20260502200510 68 323 2.0 7.0 0.00 0.00 0.00 63 1015.7
20260502200025 67 352 2.0 7.0 0.00 0.00 0.00 61 1015.7
20260502195509 68 185 2.0 5.0 0.00 0.00 0.00 64 1015.8
20260502195006 68 24 3.0 5.0 0.00 0.00 0.00 62 1015.8
20260502194508 67 13 2.0 8.0 0.00 0.00 0.00 63 1015.9
20260502194004 66 341 3.0 8.0 0.00 0.00 0.00 66 1015.9
20260502193507 67 324 2.0 4.0 0.00 0.00 0.00 64 1016.0
20260502193014 66 294 2.0 6.0 0.00 0.00 0.00 67 1016.0
20260502192507 64 240 3.0 6.0 0.00 0.00 0.00 66 1016.1
20260502192008 65 321 2.0 4.0 0.00 0.00 0.00 68 1016.3
20260502191522 64 121 1.0 6.0 0.00 0.00 0.00 67 1016.2
20260502191009 63 69 1.0 6.0 0.00 0.00 0.00 68 1016.3
20260502190509 64 291 2.0 5.0 0.00 0.00 0.00 68 1016.3
20260502190023 65 221 1.0 8.0 0.00 0.00 0.00 66 1016.3
20260502185512 64 39 1.0 8.0 0.00 0.00 0.00 67 1016.4
20260502185011 64 360 3.0 9.0 0.00 0.00 0.00 67 1016.6
20260502184525 64 114 1.0 9.0 0.00 0.00 0.00 69 1016.5
20260502184007 63 360 2.0 7.0 0.00 0.00 0.00 70 1016.6
20260502183504 62 333 3.0 7.0 0.00 0.00 0.00 70 1016.6
20260502183013 62 15 2.0 4.0 0.00 0.00 0.00 71 1016.7
20260502182504 61 346 1.0 4.0 0.00 0.00 0.00 70 1016.7
20260502182011 61 48 1.0 5.0 0.00 0.00 0.00 72 1016.7
20260502181519 60 12 2.0 5.0 0.00 0.00 0.00 72 1016.7
20260502181008 60 352 4.0 5.0 0.00 0.00 0.00 71 1016.7
20260502180508 60 352 2.0 5.0 0.00 0.00 0.00 73 1016.7
20260502170511 57 163 1.0 3.0 0.00 0.00 0.00 81 1017.1
20260502164009 53 298 1.0 3.0 0.00 0.00 0.00 85 1017.3
20260502163511 52 292 2.0 3.0 0.00 0.00 0.00 85 1017.2
20260502163033 52 301 1.0 3.0 0.00 0.00 0.00 86 1017.3
20260502162508 52 267 2.0 3.0 0.00 0.00 0.00 87 1017.2
20260502162012 51 273 1.0 3.0 0.00 0.00 0.00 87 1017.3
20260502161529 51 284 1.0 4.0 0.00 0.00 0.00 86 1017.3
20260502161010 52 272 1.0 4.0 0.00 0.00 0.00 85 1017.3
20260502160508 52 181 1.0 3.0 0.00 0.00 0.00 87 1017.4
20260502152011 51 277 0.0 0.0 0.00 0.00 0.00 88 1017.0
20260502151509 51 232 0.0 0.0 0.00 0.00 0.00 89 1017.1
20260502151006 51 232 0.0 0.0 0.00 0.00 0.00 88 1017.2
20260502150504 50 284 0.0 0.0 0.00 0.00 0.00 88 1017.1
20260502130505 49 187 0.0 0.0 0.00 0.00 0.00 90 1017.0
20260502123507 50 187 0.0 2.0 0.00 0.00 0.00 90 1017.1
20260502123022 50 187 0.0 2.0 0.00 0.00 0.00 90 1017.2
20260502122512 49 179 1.0 2.0 0.00 0.00 0.00 90 1017.2
20260502122009 49 151 0.0 0.0 0.00 0.00 0.00 90 1017.2
20260502121524 50 151 0.0 0.0 0.00 0.00 0.00 90 1017.3
20260502121009 49 151 0.0 0.0 0.00 0.00 0.00 90 1017.3
20260502120511 49 142 0.0 0.0 0.00 0.00 0.00 90 1017.2
20260502115507 49 142 0.0 2.0 0.00 0.00 0.00 89 1017.4
20260502115004 49 91 0.0 2.0 0.00 0.00 0.00 90 1017.2
20260502114512 49 175 0.0 2.0 0.00 0.00 0.00 90 1017.3
20260502114004 49 175 0.0 1.0 0.00 0.00 0.00 89 1017.3
20260502113509 49 288 0.0 0.0 0.00 0.00 0.00 90 1017.2
20260502113019 49 236 0.0 0.0 0.00 0.00 0.00 89 1017.3
20260502112507 50 241 0.0 0.0 0.00 0.00 0.00 89 1017.2
20260502112007 50 241 0.0 0.0 0.00 0.00 0.00 89 1017.2
20260502111523 50 225 0.0 0.0 0.00 0.00 0.00 89 1017.4
20260502111010 50 218 0.0 0.0 0.00 0.00 0.00 89 1017.5
20260502110509 50 338 0.0 1.0 0.00 0.00 0.00 89 1017.5
20260502110026 50 194 0.0 2.0 0.00 0.00 0.00 89 1017.7
20260502105512 50 212 1.0 2.0 0.00 0.00 0.00 89 1017.9
20260502105011 50 207 0.0 2.0 0.00 0.00 0.00 89 1017.9
20260502104534 50 211 0.0 2.0 0.00 0.00 0.00 89 1017.9
20260502104004 50 200 0.0 2.0 0.00 0.00 0.00 89 1017.8
20260502103504 50 199 0.0 2.0 0.00 0.00 0.00 89 1017.6
20260502103025 50 196 0.0 2.0 0.00 0.00 0.00 89 1017.3
20260502102506 50 185 0.0 0.0 0.00 0.00 0.00 88 1017.1
20260502102008 50 185 0.0 0.0 0.00 0.00 0.00 88 1017.1
20260502101520 50 185 0.0 0.0 0.00 0.00 0.00 88 1016.9
20260502101007 50 185 0.0 1.0 0.00 0.00 0.00 88 1016.9
20260502100507 50 185 0.0 2.0 0.00 0.00 0.00 88 1016.9
20260502091524 52 184 0.0 0.0 0.00 0.00 0.00 86 1016.7
20260502091014 52 184 0.0 0.0 0.00 0.00 0.00 86 1016.8
20260502090508 52 184 0.0 1.0 0.00 0.00 0.00 85 1017.0
20260502071536 55 281 0.0 0.0 0.00 0.00 0.00 71 1016.6
20260502071004 55 281 0.0 0.0 0.00 0.00 0.00 71 1016.8
20260502070507 55 281 0.0 0.0 0.00 0.00 0.00 72 1016.8
20260502070023 56 281 0.0 0.0 0.00 0.00 0.00 71 1016.7
20260502065508 56 281 0.0 1.0 0.00 0.00 0.00 70 1016.6
20260502065008 56 281 0.0 2.0 0.00 0.00 0.00 70 1016.6
20260502064521 56 281 0.0 2.0 0.00 0.00 0.00 70 1016.6
20260502064004 56 281 0.0 2.0 0.00 0.00 0.00 70 1016.6
20260502063504 57 281 0.0 2.0 0.00 0.00 0.00 70 1016.6
20260502063007 57 284 0.0 2.0 0.00 0.00 0.00 69 1016.4
20260502062503 57 284 0.0 2.0 0.00 0.00 0.00 70 1016.5
20260502062004 57 284 0.0 3.0 0.00 0.00 0.00 69 1016.5
20260502061510 57 294 1.0 3.0 0.00 0.00 0.00 68 1016.4
20260502061003 57 223 0.0 2.0 0.00 0.00 0.00 69 1016.6
20260502060507 58 303 1.0 2.0 0.00 0.00 0.00 68 1016.5
20260502060020 58 248 0.0 2.0 0.00 0.00 0.00 68 1016.5
20260502055508 58 195 0.0 2.0 0.00 0.00 0.00 67 1016.4
20260502055010 58 281 1.0 2.0 0.00 0.00 0.00 67 1016.3
20260502054522 59 252 1.0 2.0 0.00 0.00 0.00 66 1016.2
20260502054007 60 269 1.0 4.0 0.00 0.00 0.00 62 1016.2
20260502053507 61 261 2.0 4.0 0.00 0.00 0.00 58 1016.1
20260502053024 62 270 1.0 2.0 0.00 0.00 0.00 56 1016.1
20260502052503 62 24 0.0 3.0 0.00 0.00 0.00 56 1016.1
20260502052002 62 25 1.0 4.0 0.00 0.00 0.00 55 1016.0
20260502051517 62 342 1.0 4.0 0.00 0.00 0.00 56 1015.9
20260502051003 62 352 0.0 2.0 0.00 0.00 0.00 55 1016.0
20260502050507 62 17 0.0 2.0 0.00 0.00 0.00 55 1015.9
20260502050016 62 11 1.0 2.0 0.00 0.00 0.00 55 1015.9
20260502045504 62 9 0.0 3.0 0.00 0.00 0.00 54 1015.9
20260502045007 63 352 2.0 3.0 0.00 0.00 0.00 54 1015.9
20260502044520 63 5 0.0 5.0 0.00 0.00 0.00 54 1015.8
20260502044008 63 30 1.0 5.0 0.00 0.00 0.00 54 1015.7
20260502043507 63 5 1.0 5.0 0.00 0.00 0.00 55 1015.8
20260502043021 63 35 1.0 5.0 0.00 0.00 0.00 56 1015.7
20260502042512 63 336 2.0 5.0 0.00 0.00 0.00 56 1015.8
20260502042010 62 53 0.0 2.0 0.00 0.00 0.00 57 1015.8
20260502041524 63 49 0.0 3.0 0.00 0.00 0.00 59 1015.6
20260502041007 63 11 0.0 3.0 0.00 0.00 0.00 58 1015.7
20260502040503 63 313 1.0 3.0 0.00 0.00 0.00 59 1015.7
20260502040014 63 352 1.0 5.0 0.00 0.00 0.00 59 1015.6
20260502035503 63 13 1.0 5.0 0.00 0.00 0.00 59 1015.5
20260502035006 63 10 1.0 6.0 0.00 0.00 0.00 60 1015.3
20260502034534 63 5 2.0 6.0 0.00 0.00 0.00 59 1015.3
20260502034008 63 42 0.0 6.0 0.00 0.00 0.00 59 1015.3
20260502033509 63 26 1.0 7.0 0.00 0.00 0.00 59 1015.0
20260502033028 63 13 3.0 7.0 0.00 0.00 0.00 58 1015.0
20260502032507 63 346 1.0 2.0 0.00 0.00 0.00 59 1015.0
20260502032010 63 342 0.0 2.0 0.00 0.00 0.00 59 1015.0
20260502031524 63 274 0.0 0.0 0.00 0.00 0.00 60 1014.9
20260502031010 63 274 0.0 0.0 0.00 0.00 0.00 58 1014.9
20260502030510 64 275 0.0 0.0 0.00 0.00 0.00 58 1014.9
20260502030024 64 275 0.0 0.0 0.00 0.00 0.00 57 1014.8
20260502025506 64 275 0.0 1.0 0.00 0.00 0.00 56 1014.7